User: anonymous   Login
Location: Joplin
(37.0842°N, 94.5131°W)
Time: 06:52:24
(UTC-05:00)
Language:

DOVE 4 - Orbit

View from above orbital plane
View from above orbital plane
View from above satellite
View from above satellite

Ground track
Ground track

The orbit data is extracted from the following two-line orbital elements,

1 39430U 13066Q   19176.20514625  .00000117  00000-0  30605-4 0  9991
2 39430  97.7467 132.3290 0149778 233.5266 125.2061 14.59253944297555
Epoch (UTC): 25 June 2019 04:55:24
Eccentricity: 0.0149778
inclination: 97.7467°
perigee height: 589 km
apogee height: 801 km
right ascension of ascending node: 132.3290°
argument of perigee: 233.5266°
revolutions per day: 14.59253944
mean anomaly at epoch: 125.2061°
orbit number at epoch: 29755

The dashed part of the orbit path shows where the satellite is in the earth's shadow,  

DLR